Showing default

DELFI-N3XT, 39428

Orbit data source: Space-Track

DELFI-N3XT, 39428 is a payload satellite owned by TU Delft (NL) in SSO that was launched on Thu, 21 Nov 2013 UTC via a DNEPR launch vehicle from the Orenburg, Russia (OREN). Payload-class satellites include a variety of spacecraft equipped with specific instruments for various scientific and technological missions. These include communications satellites like Starlink; space stations such as the ISS; scientific satellites like the Hubble; Earth observation satellites from companies like Planet Labs, Umbra, and HawkEye 360; GPS; miniature CubeSats for education and research; and military/defense satellites.

Loading next visibility...
Identifier
39428, 2013-066N
Orbit
SSO
Country
Flag of UnknownUnknown / NETH
Related business
Manufacturer
TU Delft
Mission
Non-operational Amateur Technology
Bus & Motor
CUBESAT 3U, Unknown motor
Mass
3.5 kg wet, 3.5 kg dry
Launch date (UTC)
2013-11-21 (12 years ago)
Launch vehicle
DNEPR
Launch site
Orenburg, Russia (OREN)
Object type
Payload
Rocket body
Debris
Shape & HBR
Box + 4 Pan, 0.1 m
Radar Cross Section
0.075 m², Medium (>0.1 m² and < 1m²)

Expand to show TLE details & history
Last TLE update: 7 hours ago

TLE from 7 hours ago
0 DELFI-N3XT
1 39428U 13066N   26037.72510894  .00012237  00000-0  11141-2 0  9991
2 39428  97.8351 318.3452 0075461 280.9365  78.3371 14.93136935655147
Epoch: 2026-02-06T17:24Z
TLE epoch observation values (Epoch: 2026-02-06T17:24:09.412Z)
Latitude
-0.00001°
Longitude
-79.55288°
Altitude
580.955 km
Speed
7.576 km/s
True Right ascension
21h 13m 22s
True Declination
0° 00' 00"
Sunlit
Object was in daylight at epoch
Visualization orbit readout
Latitude
Unknown
Longitude
Unknown
Altitude
Unknown
Speed
Unknown
Apparent Right ascension
Unknown
Apparent Declination
Unknown
Sunlit
N/A
Visualization observer readout
Local Sidereal Time
02:42:11
Azimuth
Unknown
Elevation
Unknown
Doppler factor
Unknown
Orbital elements
Apogee altitude
637.728 km
Perigee altitude
532.636 km
Semi-major axis
6,963.319 km
Eccentricity
0.00755
Inclination
97.8351°
RAAN
318.3452°
Arg. of periapsis
280.9365°
True anomaly
79.18555°
Mean anomaly
78.3371°
Eccentric anomaly
78.76117°
Mean motion
3.73524 °/min
Orbital period
96.38 mins
BSTAR
0.0011141
Loading maneuver chart data...
Computing Atmospheric mass density...
Loading historical data...
Loading historical data...
Loading historical data...
Loading historical data...
Loading historical data...
Loading historical data...
Loading historical data...

Documentation

Showing up to 5 results
|